| time (UTC) | temp C | wind direction | speed KPH | gust KPH | rain 1hr cm | rain 24hr cm | rain mn cm | humidity % | barometer mb |
| 20260502130210 | 24 | 276 | 17.7 | 0.0 | 0.00 | 0.00 | 0.00 | 29 | 1017.9 |
| 20260502123210 | 23 | 253 | 16.1 | 0.0 | 0.00 | 0.00 | 0.00 | 31 | 1018.5 |
| 20260502120210 | 23 | 221 | 17.7 | 0.0 | 0.00 | 0.00 | 0.00 | 34 | 1018.8 |
| 20260502113211 | 22 | 207 | 16.1 | 0.0 | 0.00 | 0.00 | 0.00 | 39 | 1019.2 |
| 20260502110210 | 22 | 213 | 14.5 | 0.0 | 0.00 | 0.00 | 0.00 | 40 | 1019.7 |
| 20260502103210 | 22 | 240 | 11.3 | 0.0 | 0.00 | 0.00 | 0.00 | 41 | 1020.1 |
| 20260502100210 | 21 | 256 | 17.7 | 0.0 | 0.00 | 0.00 | 0.00 | 45 | 1020.6 |
| 20260502090210 | 19 | 249 | 16.1 | 0.0 | 0.00 | 0.00 | 0.00 | 47 | 1021.1 |
| 20260502070213 | 13 | 227 | 8.0 | 0.0 | 0.00 | 0.00 | 0.00 | 62 | 1021.5 |
| 20260502063212 | 12 | 252 | 8.0 | 0.0 | 0.00 | 0.00 | 0.00 | 65 | 1021.4 |
| 20260502060210 | 11 | 243 | 4.8 | 0.0 | 0.00 | 0.00 | 0.00 | 67 | 1021.4 |
| 20260502053210 | 10 | 265 | 9.7 | 0.0 | 0.00 | 0.00 | 0.00 | 69 | 1021.3 |
| 20260502050211 | 9 | 267 | 6.4 | 0.0 | 0.00 | 0.00 | 0.00 | 69 | 1021.3 |
| 20260502043211 | 9 | 239 | 6.4 | 0.0 | 0.00 | 0.00 | 0.00 | 68 | 1021.1 |
| 20260502040213 | 9 | 239 | 3.2 | 0.0 | 0.00 | 0.00 | 0.00 | 65 | 1021.1 |
| 20260502033211 | 10 | 240 | 4.8 | 0.0 | 0.00 | 0.00 | 0.00 | 65 | 1021.0 |
| 20260502030211 | 10 | 243 | 8.0 | 0.0 | 0.00 | 0.00 | 0.00 | 64 | 1021.1 |
| 20260502023214 | 10 | 242 | 8.0 | 0.0 | 0.00 | 0.00 | 0.00 | 63 | 1021.3 |
| 20260502020212 | 10 | 216 | 4.8 | 0.0 | 0.00 | 0.00 | 0.00 | 64 | 1021.3 |
| 20260502013211 | 9 | 197 | 8.0 | 0.0 | 0.00 | 0.00 | 0.00 | 63 | 1021.3 |
| 20260502010211 | 10 | 164 | 4.8 | 0.0 | 0.00 | 0.00 | 0.00 | 60 | 1021.5 |
| 20260502003209 | 11 | 144 | 8.0 | 0.0 | 0.00 | 0.00 | 0.00 | 58 | 1021.8 |
| 20260502000211 | 11 | 98 | 17.7 | 0.0 | 0.00 | 0.00 | 0.00 | 56 | 1021.9 |
| 20260501233210 | 11 | 80 | 19.3 | 0.0 | 0.00 | 0.00 | 0.00 | 54 | 1021.9 |
| 20260501230210 | 11 | 79 | 20.9 | 0.0 | 0.00 | 0.00 | 0.00 | 53 | 1022.0 |
| 20260501223210 | 12 | 67 | 22.5 | 0.0 | 0.00 | 0.00 | 0.00 | 52 | 1022.1 |
| 20260501220211 | 12 | 55 | 20.9 | 0.0 | 0.00 | 0.00 | 0.00 | 51 | 1022.1 |
| 20260501213210 | 13 | 54 | 27.4 | 0.0 | 0.00 | 0.00 | 0.00 | 49 | 1022.0 |
| 20260501210210 | 13 | 42 | 29.0 | 0.0 | 0.00 | 0.00 | 0.00 | 48 | 1022.0 |
| 20260501203209 | 13 | 40 | 25.7 | 0.0 | 0.00 | 0.00 | 0.00 | 46 | 1022.2 |
| 20260501200211 | 14 | 55 | 27.4 | 0.0 | 0.00 | 0.00 | 0.00 | 44 | 1022.0 |
| 20260501193209 | 15 | 29 | 27.4 | 0.0 | 0.00 | 0.00 | 0.00 | 42 | 1021.9 |
| 20260501190210 | 16 | 64 | 25.7 | 0.0 | 0.00 | 0.00 | 0.00 | 40 | 1021.9 |
| 20260501183210 | 17 | 57 | 20.9 | 0.0 | 0.00 | 0.00 | 0.00 | 37 | 1021.9 |
| 20260501180210 | 18 | 76 | 25.7 | 0.0 | 0.00 | 0.00 | 0.00 | 34 | 1021.7 |
| 20260501173211 | 18 | 68 | 25.7 | 0.0 | 0.00 | 0.00 | 0.00 | 31 | 1021.8 |
| 20260501170210 | 18 | 68 | 20.9 | 0.0 | 0.00 | 0.00 | 0.00 | 30 | 1021.8 |
| 20260501163209 | 19 | 82 | 17.7 | 0.0 | 0.00 | 0.00 | 0.00 | 30 | 1022.1 |
| 20260501160210 | 20 | 73 | 27.4 | 0.0 | 0.00 | 0.00 | 0.00 | 28 | 1022.2 |
| 20260501153210 | 21 | 119 | 20.9 | 0.0 | 0.00 | 0.00 | 0.00 | 27 | 1022.4 |
| 20260501150210 | 21 | 80 | 19.3 | 0.0 | 0.00 | 0.00 | 0.00 | 26 | 1022.6 |
| 20260501143210 | 21 | 81 | 24.1 | 0.0 | 0.00 | 0.00 | 0.00 | 26 | 1022.8 |
| 20260501140210 | 21 | 63 | 22.5 | 0.0 | 0.00 | 0.00 | 0.00 | 26 | 1023.0 |
| 20260501133210 | 20 | 62 | 24.1 | 0.0 | 0.00 | 0.00 | 0.00 | 27 | 1023.2 |